Location: Newark
(35.8833°N, 14.5000°E)
Time: 08:43:35
(UTC+00:00)

BEESAT - Pass Details

Date: 13 November 2019
Orbit: 700 x 709 km, 98.6° (Epoch: 06 December)

Event Time Altitude Azimuth Distance (km) Brightness Sun altitude
Rises 16:15:39 0° 16° (NNE) 3,092 ? -4.5°
Reaches altitude 10° 16:17:56 10° 20° (NNE) 2,171 ? -4.9°
Maximum altitude 16:22:39 63° 102° (ESE) 781 ? -5.8°
Drops below altitude 10° 16:27:20 10° 183° (S) 2,161 ? -6.8°
Sets 16:29:36 0° 187° (S) 3,076 ? -7.2°
